#timestamp,LO_Frequency,Hit,StdDev 
1506524415.4,286047004.4,Y
1506524435.3,286047002.4,P
1506524455.1,286047000.4,N
1506524475.9,286047000.4,N
1506524495.7,286047000.1,N
1506524515.5,286047001.5,N
1506524535.4,286047002.4,Y
1506524555.2,286047000.3,P
1506524575.0,286047002.8,P
1506524575.9,286047002.8,N
1506524595.8,286047000.8,N
1506524615.6,286047000.7,N
1506524635.5,286047001.0,N
1506524655.3,286047001.1,N
1506524675.1,286047000.7,N
1506524695.9,286047000.0,N
1506524715.7,286046999.7,N
1506524735.6,286047002.1,N
1506524755.4,286047000.5,N
1506524775.2,286047000.7,N
1506524795.1,286047000.4,N
1506524796.0,286047000.4,N
1506524815.8,286047000.7,N
1506524835.6,286047000.8,N
1506524855.5,286046998.4,N
1506524875.3,286046999.2,N
1506524895.2,286046998.8,N
1506524915.9,286047000.6,N
1506524935.7,286047002.1,N
1506524955.6,286047000.6,N
1506524975.4,286046999.7,N
1506524995.2,286047001.7,N
1506525015.1,286047002.0,N
1506525016.0,286047002.0,N
1506525035.8,286047002.0,N
1506525055.7,286047001.4,N
1506525075.5,286047001.5,N
1506525095.4,286047002.2,N
1506525115.2,286047002.6,N
1506525135.0,286047002.6,N
1506525135.9,286047002.6,N
1506525155.8,286047002.5,N
1506525175.6,286047003.9,Y
1506525195.4,286047000.7,P
1506525215.3,286047000.4,N
1506525235.1,286047000.6,N
1506525255.9,286047000.8,Y
1506525275.7,286046999.2,P
1506525295.5,286046999.5,N
1506525315.4,286046999.4,N
1506525335.2,286046998.4,N
1506525355.0,286046999.0,N
1506525356.0,286046999.0,N
1506525375.8,286046998.9,N
1506525395.6,286046998.1,Y
1506525415.5,286047000.5,P
1506525435.3,286047001.1,N
1506525455.1,286047000.3,N
1506525475.9,286047000.9,N
1506525495.7,286046999.8,N
1506525515.6,286047000.4,N
1506525535.4,286047002.5,Y
1506525555.2,286046999.9,P
1506525575.1,286046999.8,N
1506525576.0,286046999.8,N
1506525595.8,286047002.4,Y
1506525615.7,286047002.7,P
1506525635.5,286047001.3,N
1506525655.3,286047002.0,N
1506525675.2,286047001.9,N
1506525695.0,286047001.9,N
1506525695.9,286047001.9,N
1506525715.8,286047002.1,N
1506525735.6,286047002.8,Y
1506525755.4,286047001.0,P
1506525775.3,286047001.2,P
1506525795.1,286047000.8,N
1506525815.9,286046996.7,Y
1506525835.7,286046995.6,P
1506525855.5,286046995.0,N
1506525875.4,286046996.6,N
1506525895.2,286046999.0,N
1506525915.0,286046999.4,N
1506525915.9,286046999.4,N
1506525935.8,286046998.9,N
1506525955.6,286046999.6,N
1506525975.5,286046999.6,N
1506525995.3,286046999.5,N
1506526015.1,286046998.7,N
1506526035.9,286047000.7,N
1506526055.7,286046999.0,N
1506526075.5,286046998.9,N
1506526095.4,286046998.4,N
1506526115.2,286046999.0,N
1506526135.1,286046996.5,N
1506526136.0,286046996.5,N
1506526155.8,286046996.5,N
1506526175.6,286046998.8,N
1506526195.5,286046999.6,N
1506526215.3,286046999.0,N
1506526235.1,286046999.5,N
1506526255.9,286046999.3,N
1506526275.7,286046998.8,N
1506526295.6,286046998.0,N
1506526315.4,286046995.0,Y
1506526335.2,286046998.3,P
1506526355.1,286047000.7,P
1506526356.0,286047000.7,N
1506526375.8,286047000.4,N
1506526395.7,286047000.3,N
1506526415.5,286047000.0,N
1506526435.3,286047001.2,N
1506526455.2,286046999.9,N
1506526475.0,286047000.3,N
1506526475.9,286047000.3,N
1506526495.8,286047002.8,Y
1506526515.6,286047001.0,P
1506526535.4,286047002.5,P
1506526555.3,286047000.3,N
1506526575.1,286047000.4,N
1506526595.8,286047001.0,N
1506526615.7,286047000.1,N
1506526635.5,286046999.8,N
1506526655.4,286047000.2,N
1506526675.2,286047002.8,Y
1506526695.0,286047000.3,P
1506526695.9,286047000.3,N
1506526715.8,286047000.0,N
1506526735.6,286047001.0,Y
1506526755.5,286047001.2,P
1506526775.3,286047001.1,N
1506526795.1,286046999.9,N
1506526815.9,286047001.1,N
1506526835.7,286047000.6,N
1506526855.5,286046999.9,N
1506526875.4,286047001.0,N
1506526895.2,286047001.2,N
1506526915.1,286046998.8,N
1506526916.0,286046998.8,N
1506526935.8,286046998.3,N
1506526955.6,286046998.5,N
1506526975.5,286046999.4,N
1506526995.3,286046999.3,N
1506527015.1,286046998.8,N
1506527035.9,286046998.3,N
1506527055.7,286046998.7,N
1506527075.6,286046998.5,N
1506527095.4,286046998.3,N
1506527115.2,286046998.5,N
1506527135.1,286046998.5,N
1506527136.0,286046998.5,N
1506527155.8,286047000.2,N
1506527175.7,286047000.8,N
1506527195.5,286047001.1,N
1506527215.3,286046998.8,N
1506527235.2,286047001.1,N
1506527255.0,286046998.2,N
1506527255.9,286046998.2,N
1506527275.7,286046998.3,N
1506527295.6,286046999.3,N
1506527315.4,286046998.5,N
1506527335.3,286046998.2,N
1506527355.1,286046998.2,N
1506527375.8,286046998.2,N
1506527395.7,286046998.4,N
1506527415.5,286047000.7,N
1506527435.4,286046998.8,N
1506527455.2,286046998.9,N
1506527475.0,286046999.5,N
1506527475.9,286046999.5,N
1506527495.8,286046997.0,Y
1506527515.6,286046999.4,P
1506527535.5,286046999.1,P
1506527555.3,286046999.1,P
1506527575.1,286046998.9,Y
1506527595.9,286047000.4,P
1506527615.7,286047000.7,N
1506527635.6,286047000.5,N
1506527655.4,286047000.0,N
1506527675.2,286047001.2,N
1506527695.1,286046998.1,Y
1506527696.0,286046998.1,P
1506527715.8,286046998.6,N
1506527735.7,286046999.3,N
1506527755.5,286046999.1,N
1506527775.3,286046998.8,N
1506527795.2,286046998.5,N
1506527815.0,286047001.2,N
1506527815.9,286047001.2,N
1506527835.7,286046998.1,N
1506527855.6,286046998.8,N
1506527875.4,286047001.1,N
1506527895.3,286046998.2,N
1506527915.1,286047000.8,N
1506527916.0,286047000.8,N
1506527935.8,286046999.2,N
1506527955.7,286046996.5,Y
1506527975.5,286046999.1,P
1506527995.4,286046998.8,P
